Location: Bosmont
(49.7318°N, 3.8587°E)
Time: 03:13:19
(UTC+00:00)

CUBESAT XI-V - Visible Passes

Search period start: 07 December 2023 00:00
Search period end: 17 December 2023 00:00
Orbit: 661 x 683 km, 98.2° (Epoch: 06 December)

Date Brightness Start Highest point End Pass type
(mag) Time Alt. Az. Time Alt. Az. Time Alt. Az.
08 Dec ? 16:19:18 10° NNW 16:22:05 16° WNW 16:24:50 10° W visible
11 Dec ? 16:22:22 10° NNW 16:24:58 15° NW 16:27:35 10° W visible
14 Dec ? 16:25:23 10° NNW 16:27:50 14° NW 16:30:16 10° W visible
